Glenwood, MN

10:46 AM CDT on August 30, 2016 (GMT -0500)
Glenwood Municipal

Weather History for KGHW - February, 2013

Change the Weather History Date:

Sunday, February 10, 2013

  Actual Average Record
Temperature  
Mean Temperature 26 °F -  
Max Temperature 28 °F 23 °F 43 °F (1976)
Min Temperature 24 °F 3 °F -23 °F (1986)
Degree Days  
Heating Degree Days 39    
Moisture  
Dew Point 25 °F    
Average Humidity 94    
Maximum Humidity 100    
Minimum Humidity 86    
Precipitation  
Precipitation 0.05 in - - ()
Sea Level Pressure  
Sea Level Pressure 29.51 in    
Wind  
Wind Speed 17 mph (NE)    
Max Wind Speed 23 mph    
Max Gust Speed 29 mph    
Visibility 4 miles    
Events Snow    
Averages and records for this station are not official NWS values.
T = Trace of Precipitation, MM = Missing Value Source: NWS Daily Summary

Daily Weather History Graph

Daily Weather History Graph

Search for Another Location

Airport or City:

Trip Planner

Search our weather history database for the weather conditions in past years. The results will help you decide how hot, cold, wet, or windy it might be!

Date:

Astronomy

Feb. 10, 2013 Rise Set
Actual Time 7:30 AM CST 5:41 PM CST
Civil Twilight 6:59 AM CST 6:12 PM CST
Nautical Twilight 6:24 AM CST 6:47 PM CST
Astronomical Twilight 5:50 AM CST 7:21 PM CST
Moon 7:16 AM CST (2/10) 6:38 PM CST (2/10)
Length of Visible Light 11h 12m
Length of Day
10h 10m
New Moon, 0% of the Moon is Illuminated
Feb 10
New Moon
Feb 17
First Quarter
Feb 25
Full
Mar 4
Last Quarter
Mar 11
New

Hourly Weather History & Observations

Time (CST) Temp. Windchill Dew Point Humidity Pressure Visibility Wind Dir Wind Speed Gust Speed Precip Events Conditions
12:13 AM 28.4 °F 18.5 °F 28.4 °F 100% 29.83 in 3.0 mi ESE 11.5 mph - N/A Snow Light Snow
12:33 AM 28.4 °F 19.1 °F 28.4 °F 100% 29.82 in 2.0 mi ESE 10.4 mph - N/A Snow Light Snow
12:53 AM 28.4 °F 17.5 °F 28.4 °F 100% 29.81 in 2.0 mi ESE 13.8 mph - N/A Snow Light Snow
1:13 AM 28.4 °F 16.2 °F 28.4 °F 100% 29.79 in 1.2 mi ESE 17.3 mph - N/A Snow Light Snow
1:33 AM 28.4 °F 16.2 °F 28.4 °F 100% 29.78 in 1.0 mi East 17.3 mph - N/A Snow Light Snow
1:53 AM 28.4 °F 16.6 °F 26.6 °F 93% 29.78 in 2.0 mi ESE 16.1 mph - N/A Snow Light Snow
2:14 AM 28.4 °F 16.2 °F 26.6 °F 93% 29.78 in 3.0 mi ESE 17.3 mph 21.9 mph N/A Snow Light Snow
2:33 AM 28.4 °F 15.1 °F 26.6 °F 93% 29.77 in 2.5 mi ESE 20.7 mph - N/A   Overcast
2:53 AM 26.6 °F 13.1 °F 26.6 °F 100% 29.76 in 2.5 mi East 19.6 mph - N/A   Overcast
3:14 AM 26.6 °F 13.1 °F 26.6 °F 100% 29.74 in 3.0 mi East 19.6 mph 24.2 mph N/A   Overcast
3:33 AM 26.6 °F 13.4 °F 26.6 °F 100% 29.72 in 3.0 mi East 18.4 mph - N/A   Overcast
3:53 AM 26.6 °F 12.7 °F 26.6 °F 100% 29.70 in 2.5 mi East 20.7 mph 25.3 mph N/A   Overcast
4:14 AM 26.6 °F 12.7 °F 26.6 °F 100% 29.70 in 2.5 mi East 20.7 mph 25.3 mph N/A   Overcast
4:33 AM 26.6 °F 13.1 °F 26.6 °F 100% 29.70 in 2.5 mi East 19.6 mph 24.2 mph N/A   Overcast
4:53 AM 26.6 °F 13.1 °F 26.6 °F 100% 29.67 in 2.5 mi East 19.6 mph - N/A   Overcast
5:14 AM 26.6 °F 13.1 °F 26.6 °F 100% 29.67 in 3.0 mi East 19.6 mph - N/A   Overcast
5:33 AM 26.6 °F 13.4 °F 26.6 °F 100% 29.68 in 4.0 mi East 18.4 mph - N/A   Overcast
5:53 AM 26.6 °F 13.1 °F 26.6 °F 100% 29.65 in 3.0 mi East 19.6 mph - N/A Snow Light Snow
6:14 AM 26.6 °F 13.1 °F 24.8 °F 93% 29.61 in 1.8 mi ENE 19.6 mph - N/A Snow Light Snow
6:33 AM 26.6 °F 13.8 °F 24.8 °F 93% 29.60 in 2.0 mi ENE 17.3 mph - N/A Snow Light Snow
6:53 AM 26.6 °F 12.7 °F 24.8 °F 93% 29.62 in 2.5 mi ENE 20.7 mph 26.5 mph N/A Snow Light Snow
7:14 AM 26.6 °F 12.7 °F 24.8 °F 93% 29.62 in 1.8 mi East 20.7 mph - N/A Snow Light Snow
7:33 AM 26.6 °F 13.4 °F 24.8 °F 93% 29.58 in 1.5 mi ENE 18.4 mph 26.5 mph N/A Snow Light Snow
7:53 AM 26.6 °F 13.4 °F 24.8 °F 93% 29.56 in 1.2 mi ENE 18.4 mph 26.5 mph N/A Snow Light Snow
8:14 AM 26.6 °F 13.4 °F 24.8 °F 93% 29.56 in 1.8 mi ENE 18.4 mph - N/A Snow Light Snow
8:33 AM 26.6 °F 13.8 °F 24.8 °F 93% 29.59 in 1.5 mi ENE 17.3 mph - N/A Snow Light Snow
8:53 AM 26.6 °F 12.7 °F 24.8 °F 93% 29.55 in 0.8 mi NE 20.7 mph - 0.01 in Snow Light Snow
9:14 AM 26.6 °F 13.4 °F 24.8 °F 93% 29.54 in 0.2 mi NE 18.4 mph 24.2 mph 0.01 in Snow Snow
9:33 AM 26.6 °F 14.3 °F 24.8 °F 93% 29.54 in 0.2 mi NE 16.1 mph - 0.01 in Snow Snow
9:53 AM 26.6 °F 14.7 °F 24.8 °F 93% 29.55 in 0.2 mi NE 15.0 mph - 0.02 in Snow Snow
10:13 AM 26.6 °F 13.8 °F 24.8 °F 93% 29.52 in 0.2 mi NE 17.3 mph - N/A Snow Snow
10:33 AM 26.6 °F 13.4 °F 24.8 °F 93% 29.52 in 0.2 mi NE 18.4 mph - 0.01 in Snow Snow
10:53 AM 26.6 °F 12.7 °F 24.8 °F 93% 29.49 in 0.2 mi NE 20.7 mph 27.6 mph 0.02 in Snow Heavy Snow
11:13 AM 26.6 °F 12.7 °F 24.8 °F 93% 29.47 in 0.2 mi NE 20.7 mph - N/A Snow Snow
11:33 AM 24.8 °F 10.0 °F 24.8 °F 100% 29.47 in 0.2 mi NE 21.9 mph - N/A Snow Heavy Snow
11:53 AM 24.8 °F 10.3 °F 24.8 °F 100% 29.45 in 0.2 mi NE 20.7 mph - N/A Snow Snow
12:13 PM 24.8 °F 10.7 °F 24.8 °F 100% 29.43 in 0.5 mi NE 19.6 mph - N/A Snow Snow
12:33 PM 24.8 °F 10.0 °F 24.8 °F 100% 29.42 in 0.2 mi NE 21.9 mph 25.3 mph N/A Snow Snow
12:53 PM 24.8 °F 9.6 °F 24.8 °F 100% 29.40 in 0.2 mi NE 23.0 mph - N/A Snow Heavy Snow
1:13 PM 24.8 °F 9.6 °F 24.8 °F 100% 29.38 in 0.5 mi NE 23.0 mph - N/A Snow Light Snow
1:33 PM 26.6 °F 12.0 °F 24.8 °F 93% 29.37 in 0.8 mi NE 23.0 mph 27.6 mph N/A Snow Light Snow
1:53 PM 24.8 °F 9.6 °F 23.0 °F 93% 29.36 in 1.0 mi NE 23.0 mph 28.8 mph N/A Snow Light Snow
2:13 PM 24.8 °F 9.6 °F 23.0 °F 93% 29.36 in 1.5 mi NE 23.0 mph - N/A Snow Light Snow
2:34 PM 24.8 °F 10.7 °F 23.0 °F 93% 29.35 in 2.0 mi NE 19.6 mph - N/A   Overcast
2:53 PM 24.8 °F 10.3 °F 23.0 °F 93% 29.35 in 1.5 mi NE 20.7 mph - N/A Snow Light Snow
3:13 PM 24.8 °F 10.7 °F 23.0 °F 93% 29.35 in 1.2 mi NNE 19.6 mph - N/A Snow Light Snow
3:34 PM 24.8 °F 10.7 °F 23.0 °F 93% 29.35 in 4.0 mi NNE 19.6 mph 24.2 mph N/A Snow Light Snow
3:53 PM 24.8 °F 11.1 °F 23.0 °F 93% 29.35 in 4.0 mi NNE 18.4 mph - N/A   Overcast
4:13 PM 24.8 °F 10.3 °F 23.0 °F 93% 29.35 in 7.0 mi NNE 20.7 mph 25.3 mph N/A   Overcast
4:34 PM 24.8 °F 10.7 °F 23.0 °F 93% 29.35 in 7.0 mi NNE 19.6 mph 24.2 mph N/A   Overcast
4:53 PM 24.8 °F 11.5 °F 23.0 °F 93% 29.35 in 7.0 mi NNE 17.3 mph - N/A   Overcast
5:13 PM 26.6 °F 14.7 °F 23.0 °F 86% 29.35 in 7.0 mi NNE 15.0 mph - N/A   Overcast
5:34 PM 26.6 °F 15.2 °F 23.0 °F 86% 29.35 in 5.0 mi NNE 13.8 mph - N/A   Overcast
5:53 PM 26.6 °F 14.7 °F 23.0 °F 86% 29.35 in 7.0 mi NNE 15.0 mph 19.6 mph N/A   Overcast
6:13 PM 26.6 °F 15.2 °F 24.8 °F 93% 29.36 in 7.0 mi NNE 13.8 mph - N/A   Overcast
6:34 PM 26.6 °F 15.7 °F 24.8 °F 93% 29.36 in 7.0 mi North 12.7 mph - N/A   Overcast
6:53 PM 26.6 °F 15.7 °F 24.8 °F 93% 29.37 in 10.0 mi North 12.7 mph - N/A   Overcast
7:13 PM 26.6 °F 16.2 °F 23.0 °F 86% 29.38 in 10.0 mi North 11.5 mph - N/A   Overcast
7:33 PM 26.6 °F 15.2 °F 24.8 °F 93% 29.38 in 7.0 mi North 13.8 mph - N/A Snow Light Snow
7:53 PM 26.6 °F 15.2 °F 24.8 °F 93% 29.38 in 7.0 mi North 13.8 mph - N/A Snow Light Snow
8:13 PM 26.6 °F 14.7 °F 24.8 °F 93% 29.38 in 7.0 mi North 15.0 mph - N/A Snow Light Snow
8:33 PM 26.6 °F 14.7 °F 24.8 °F 93% 29.39 in 7.0 mi NNW 15.0 mph - N/A Snow Light Snow
8:53 PM 26.6 °F 14.3 °F 24.8 °F 93% 29.39 in 7.0 mi NNW 16.1 mph - N/A Snow Light Snow
9:13 PM 26.6 °F 14.7 °F 24.8 °F 93% 29.40 in 7.0 mi NNW 15.0 mph 23.0 mph N/A Snow Light Snow
9:33 PM 26.6 °F 13.1 °F 24.8 °F 93% 29.40 in 7.0 mi North 19.6 mph 24.2 mph N/A Snow Light Snow
9:53 PM 26.6 °F 12.7 °F 24.8 °F 93% 29.40 in 7.0 mi North 20.7 mph 24.2 mph N/A   Overcast
10:14 PM 26.6 °F 13.1 °F 24.8 °F 93% 29.41 in 7.0 mi North 19.6 mph 24.2 mph N/A Snow Light Snow
10:33 PM 26.6 °F 13.4 °F 24.8 °F 93% 29.42 in 7.0 mi NNW 18.4 mph 26.5 mph N/A   Overcast
10:53 PM 26.6 °F 13.4 °F 24.8 °F 93% 29.43 in 7.0 mi NNW 18.4 mph 25.3 mph N/A Snow Light Snow
11:14 PM 26.6 °F 13.1 °F 23.0 °F 86% 29.44 in 7.0 mi NNW 19.6 mph 26.5 mph N/A Snow Light Snow
11:33 PM 26.6 °F 13.8 °F 23.0 °F 86% 29.45 in 7.0 mi NNW 17.3 mph 24.2 mph N/A Snow Light Snow
11:53 PM 26.6 °F 13.1 °F 23.0 °F 86% 29.46 in 7.0 mi NNW 19.6 mph 24.2 mph N/A   Overcast